Year,Month,Day,Hour,Minute,Value (Times are PST for temperature in C)
2010,03,07,00,00,3.00
2010,03,07,00,01,3.00
2010,03,07,00,02,2.90
2010,03,07,00,03,2.90
2010,03,07,00,04,2.90
2010,03,07,00,05,2.90
2010,03,07,00,06,2.90
2010,03,07,00,07,2.90
2010,03,07,00,08,2.90
2010,03,07,00,09,2.90
2010,03,07,00,10,2.90
2010,03,07,00,11,2.90
2010,03,07,00,12,2.90
2010,03,07,00,13,2.90
2010,03,07,00,14,2.90
2010,03,07,00,15,2.90
2010,03,07,00,16,2.90
2010,03,07,00,17,2.90
2010,03,07,00,18,2.90
2010,03,07,00,19,2.90
2010,03,07,00,20,3.00
2010,03,07,00,21,3.00
2010,03,07,00,22,3.00
2010,03,07,00,23,3.00
2010,03,07,00,24,3.00
2010,03,07,00,25,3.00
2010,03,07,00,26,3.00
2010,03,07,00,27,2.90
2010,03,07,00,28,2.90
2010,03,07,00,29,2.90
2010,03,07,00,30,2.90
2010,03,07,00,31,2.90
2010,03,07,00,32,2.90
2010,03,07,00,33,2.90
2010,03,07,00,34,2.90
2010,03,07,00,35,2.80
2010,03,07,00,36,2.80
2010,03,07,00,37,2.80
2010,03,07,00,38,2.80
2010,03,07,00,39,2.80
2010,03,07,00,40,2.80
2010,03,07,00,41,2.80
2010,03,07,00,42,2.70
2010,03,07,00,43,2.70
2010,03,07,00,44,2.70
2010,03,07,00,45,2.70
2010,03,07,00,46,2.70
2010,03,07,00,47,2.70
2010,03,07,00,48,2.70
2010,03,07,00,49,2.60
2010,03,07,00,50,2.60
2010,03,07,00,51,2.60
2010,03,07,00,52,2.60
2010,03,07,00,53,2.60
2010,03,07,00,54,2.60
2010,03,07,00,55,2.60
2010,03,07,00,56,2.60
2010,03,07,00,57,2.60
2010,03,07,00,58,2.60
2010,03,07,00,59,2.60
2010,03,07,01,00,2.60
2010,03,07,01,01,2.60
2010,03,07,01,02,2.60
2010,03,07,01,03,2.60
2010,03,07,01,04,2.60
2010,03,07,01,05,2.60
2010,03,07,01,06,2.60
2010,03,07,01,07,2.60
2010,03,07,01,08,2.60
2010,03,07,01,09,2.60
2010,03,07,01,10,2.60
2010,03,07,01,11,2.60
2010,03,07,01,12,2.60
2010,03,07,01,13,2.60
2010,03,07,01,14,2.60
2010,03,07,01,15,2.70
2010,03,07,01,16,2.70
2010,03,07,01,17,2.70
2010,03,07,01,18,2.70
2010,03,07,01,19,2.70
2010,03,07,01,20,2.70
2010,03,07,01,21,2.70
2010,03,07,01,22,2.70
2010,03,07,01,23,2.70
2010,03,07,01,24,2.70
2010,03,07,01,25,2.70
2010,03,07,01,26,2.80
2010,03,07,01,27,2.80
2010,03,07,01,28,2.80
2010,03,07,01,29,2.80
2010,03,07,01,30,2.80
2010,03,07,01,31,2.80
2010,03,07,01,32,2.80
2010,03,07,01,33,2.80
2010,03,07,01,34,2.80
2010,03,07,01,35,2.80
2010,03,07,01,36,2.90
2010,03,07,01,37,2.80
2010,03,07,01,38,2.80
2010,03,07,01,39,2.90
2010,03,07,01,40,2.80
2010,03,07,01,41,2.80
2010,03,07,01,42,2.80
2010,03,07,01,43,2.90
2010,03,07,01,44,2.80
2010,03,07,01,45,2.80
2010,03,07,01,46,2.80
2010,03,07,01,47,2.80
2010,03,07,01,48,2.80
2010,03,07,01,49,2.80
2010,03,07,01,50,2.80
2010,03,07,01,51,2.80
2010,03,07,01,52,2.80
2010,03,07,01,53,2.80
2010,03,07,01,54,2.80
2010,03,07,01,55,2.80
2010,03,07,01,56,2.80
2010,03,07,01,57,2.80
2010,03,07,01,58,2.90
2010,03,07,01,59,2.80
2010,03,07,02,00,2.90
2010,03,07,02,01,2.90
2010,03,07,02,02,2.90
2010,03,07,02,03,2.90
2010,03,07,02,04,2.90
2010,03,07,02,05,2.90
2010,03,07,02,06,2.90
2010,03,07,02,07,2.90
2010,03,07,02,08,2.90
2010,03,07,02,09,2.90
2010,03,07,02,10,2.90
2010,03,07,02,11,2.90
2010,03,07,02,12,2.90
2010,03,07,02,13,2.90
2010,03,07,02,14,2.90
2010,03,07,02,15,2.90
2010,03,07,02,16,2.90
2010,03,07,02,17,2.90
2010,03,07,02,18,2.90
2010,03,07,02,19,2.90
2010,03,07,02,20,2.90
2010,03,07,02,21,2.90
2010,03,07,02,22,2.90
2010,03,07,02,23,2.90
2010,03,07,02,24,2.90
2010,03,07,02,25,2.90
2010,03,07,02,26,2.90
2010,03,07,02,27,2.90
2010,03,07,02,28,2.90
2010,03,07,02,29,2.90
2010,03,07,02,30,2.90
2010,03,07,02,31,2.90
2010,03,07,02,32,2.90
2010,03,07,02,33,2.90
2010,03,07,02,34,2.90
2010,03,07,02,35,2.90
2010,03,07,02,36,2.90
2010,03,07,02,37,2.90
2010,03,07,02,38,2.90
2010,03,07,02,39,2.90
2010,03,07,02,40,2.90
2010,03,07,02,41,2.90
2010,03,07,02,42,2.90
2010,03,07,02,43,2.90
2010,03,07,02,44,2.90
2010,03,07,02,45,2.90
2010,03,07,02,46,2.90
2010,03,07,02,47,2.90
2010,03,07,02,48,2.90
2010,03,07,02,49,2.90
2010,03,07,02,50,2.90
2010,03,07,02,51,2.90
2010,03,07,02,52,2.90
2010,03,07,02,53,2.90
2010,03,07,02,54,2.90
2010,03,07,02,55,2.90
2010,03,07,02,56,2.90
2010,03,07,02,57,2.90
2010,03,07,02,58,2.90
2010,03,07,02,59,2.90
2010,03,07,03,00,2.90
2010,03,07,03,01,2.90
2010,03,07,03,02,2.90
2010,03,07,03,03,2.90
2010,03,07,03,04,2.90
2010,03,07,03,05,2.90
2010,03,07,03,06,2.90
2010,03,07,03,07,3.00
2010,03,07,03,08,3.00
2010,03,07,03,09,3.00
2010,03,07,03,10,3.00
2010,03,07,03,11,3.00
2010,03,07,03,12,3.10
2010,03,07,03,13,3.10
2010,03,07,03,14,3.10
2010,03,07,03,15,3.10
2010,03,07,03,16,3.10
2010,03,07,03,17,3.10
2010,03,07,03,18,3.10
2010,03,07,03,19,3.10
2010,03,07,03,20,3.10
2010,03,07,03,21,3.10
2010,03,07,03,22,3.10
2010,03,07,03,23,3.10
2010,03,07,03,24,3.10
2010,03,07,03,25,3.20
2010,03,07,03,26,3.20
2010,03,07,03,27,3.20
2010,03,07,03,28,3.20
2010,03,07,03,29,3.20
2010,03,07,03,30,3.20
2010,03,07,03,31,3.20
2010,03,07,03,32,3.20
2010,03,07,03,33,3.20
2010,03,07,03,34,3.20
2010,03,07,03,35,3.20
2010,03,07,03,36,3.20
2010,03,07,03,37,3.20
2010,03,07,03,38,3.20
2010,03,07,03,39,3.20
2010,03,07,03,40,3.20
2010,03,07,03,41,3.20
2010,03,07,03,42,3.20
2010,03,07,03,43,3.20
2010,03,07,03,44,3.20
2010,03,07,03,45,3.20
2010,03,07,03,46,3.20
2010,03,07,03,47,3.20
2010,03,07,03,48,3.20
2010,03,07,03,49,3.20
2010,03,07,03,50,3.20
2010,03,07,03,51,3.10
2010,03,07,03,52,3.10
2010,03,07,03,53,3.10
2010,03,07,03,54,3.10
2010,03,07,03,55,3.10
2010,03,07,03,56,3.10
2010,03,07,03,57,3.10
2010,03,07,03,58,3.10
2010,03,07,03,59,3.10
2010,03,07,04,00,3.10
2010,03,07,04,01,3.10
2010,03,07,04,02,3.00
2010,03,07,04,03,3.00
2010,03,07,04,04,3.00
2010,03,07,04,05,3.00
2010,03,07,04,06,3.00
2010,03,07,04,07,3.00
2010,03,07,04,08,3.00
2010,03,07,04,09,3.00
2010,03,07,04,10,3.00
2010,03,07,04,11,3.00
2010,03,07,04,12,3.00
2010,03,07,04,13,3.00
2010,03,07,04,14,3.00
2010,03,07,04,15,3.00
2010,03,07,04,16,3.10
2010,03,07,04,17,3.10
2010,03,07,04,18,3.10
2010,03,07,04,19,3.10
2010,03,07,04,20,3.10
2010,03,07,04,21,3.10
2010,03,07,04,22,3.10
2010,03,07,04,23,3.10
2010,03,07,04,24,3.10
2010,03,07,04,25,3.10
2010,03,07,04,26,3.10
2010,03,07,04,27,3.10
2010,03,07,04,28,3.10
2010,03,07,04,29,3.20
2010,03,07,04,30,3.20
2010,03,07,04,31,3.20
2010,03,07,04,32,3.20
2010,03,07,04,33,3.20
2010,03,07,04,34,3.20
2010,03,07,04,35,3.20
2010,03,07,04,36,3.20
2010,03,07,04,37,3.20
2010,03,07,04,38,3.20
2010,03,07,04,39,3.20
2010,03,07,04,40,3.20
2010,03,07,04,41,3.20
2010,03,07,04,42,3.20
2010,03,07,04,43,3.20
2010,03,07,04,44,3.20
2010,03,07,04,45,3.20
2010,03,07,04,46,3.20
2010,03,07,04,47,3.20
2010,03,07,04,48,3.20
2010,03,07,04,49,3.10
2010,03,07,04,50,3.10
2010,03,07,04,51,3.10
2010,03,07,04,52,3.10
2010,03,07,04,53,3.10
2010,03,07,04,54,3.10
2010,03,07,04,55,3.10
2010,03,07,04,56,3.10
2010,03,07,04,57,3.10
2010,03,07,04,58,3.10
2010,03,07,04,59,3.10
2010,03,07,05,00,3.10
2010,03,07,05,01,3.00
2010,03,07,05,02,3.00
2010,03,07,05,03,3.00
2010,03,07,05,04,3.00
2010,03,07,05,05,3.00
2010,03,07,05,06,3.00
2010,03,07,05,07,3.00
2010,03,07,05,08,3.00
2010,03,07,05,09,2.90
2010,03,07,05,10,2.90
2010,03,07,05,11,2.90
2010,03,07,05,12,3.00
2010,03,07,05,13,2.90
2010,03,07,05,14,2.90
2010,03,07,05,15,2.90
2010,03,07,05,16,2.90
2010,03,07,05,17,2.90
2010,03,07,05,18,3.00
2010,03,07,05,19,3.00
2010,03,07,05,20,2.90
2010,03,07,05,21,3.00
2010,03,07,05,22,3.00
2010,03,07,05,23,3.00
2010,03,07,05,24,3.00
2010,03,07,05,25,3.00
2010,03,07,05,26,3.00
2010,03,07,05,27,3.00
2010,03,07,05,28,3.10
2010,03,07,05,29,3.00
2010,03,07,05,30,3.10
2010,03,07,05,31,3.10
2010,03,07,05,32,3.10
2010,03,07,05,33,3.10
2010,03,07,05,34,3.10
2010,03,07,05,35,3.10
2010,03,07,05,36,3.10
2010,03,07,05,37,3.10
2010,03,07,05,38,3.00
2010,03,07,05,39,3.00
2010,03,07,05,40,3.00
2010,03,07,05,41,3.00
2010,03,07,05,42,3.10
2010,03,07,05,43,3.10
2010,03,07,05,44,3.00
2010,03,07,05,45,3.00
2010,03,07,05,46,3.10
2010,03,07,05,47,3.00
2010,03,07,05,48,3.00
2010,03,07,05,49,3.10
2010,03,07,05,50,3.10
2010,03,07,05,51,3.10
2010,03,07,05,52,3.10
2010,03,07,05,53,3.10
2010,03,07,05,54,3.10
2010,03,07,05,55,3.10
2010,03,07,05,56,3.10
2010,03,07,05,57,3.10
2010,03,07,05,58,3.10
2010,03,07,05,59,3.10
2010,03,07,06,00,3.20
2010,03,07,06,01,3.20
2010,03,07,06,02,3.20
2010,03,07,06,03,3.20
2010,03,07,06,04,3.20
2010,03,07,06,05,3.20
2010,03,07,06,06,3.20
2010,03,07,06,07,3.20
2010,03,07,06,08,3.20
2010,03,07,06,09,3.20
2010,03,07,06,10,3.20
2010,03,07,06,11,3.20
2010,03,07,06,12,3.20
2010,03,07,06,13,3.20
2010,03,07,06,14,3.20
2010,03,07,06,15,3.20
2010,03,07,06,16,3.20
2010,03,07,06,17,3.20
2010,03,07,06,18,3.20
2010,03,07,06,19,3.20
2010,03,07,06,20,3.20
2010,03,07,06,21,3.20
2010,03,07,06,22,3.30
2010,03,07,06,23,3.20
2010,03,07,06,24,3.20
2010,03,07,06,25,3.30
2010,03,07,06,26,3.30
2010,03,07,06,27,3.30
2010,03,07,06,28,3.30
2010,03,07,06,29,3.30
2010,03,07,06,30,3.30
2010,03,07,06,31,3.30
2010,03,07,06,32,3.30
2010,03,07,06,33,3.30
2010,03,07,06,34,3.30
2010,03,07,06,35,3.30
2010,03,07,06,36,3.30
2010,03,07,06,37,3.20
2010,03,07,06,38,3.20
2010,03,07,06,39,3.20
2010,03,07,06,40,3.20
2010,03,07,06,41,3.20
2010,03,07,06,42,3.20
2010,03,07,06,43,3.20
2010,03,07,06,44,3.20
2010,03,07,06,45,3.20
2010,03,07,06,46,3.20
2010,03,07,06,47,3.20
2010,03,07,06,48,3.10
2010,03,07,06,49,3.10
2010,03,07,06,50,3.10
2010,03,07,06,51,3.10
2010,03,07,06,52,3.10
2010,03,07,06,53,3.10
2010,03,07,06,54,3.10
2010,03,07,06,55,3.10
2010,03,07,06,56,3.10
2010,03,07,06,57,3.10
2010,03,07,06,58,3.10
2010,03,07,06,59,3.10
2010,03,07,07,00,3.10
2010,03,07,07,01,3.10
2010,03,07,07,02,3.10
2010,03,07,07,03,3.10
2010,03,07,07,04,3.10
2010,03,07,07,05,3.10
2010,03,07,07,06,3.10
2010,03,07,07,07,3.10
2010,03,07,07,08,3.10
2010,03,07,07,09,3.10
2010,03,07,07,10,3.10
2010,03,07,07,11,3.10
2010,03,07,07,12,3.10
2010,03,07,07,13,3.10
2010,03,07,07,14,3.10
2010,03,07,07,15,3.10
2010,03,07,07,16,3.10
2010,03,07,07,17,3.10
2010,03,07,07,18,3.10
2010,03,07,07,19,3.10
2010,03,07,07,20,3.10
2010,03,07,07,21,3.10
2010,03,07,07,22,3.10
2010,03,07,07,23,3.10
2010,03,07,07,24,3.10
2010,03,07,07,25,3.10
2010,03,07,07,26,3.20
2010,03,07,07,27,3.20
2010,03,07,07,28,3.20
2010,03,07,07,29,3.20
2010,03,07,07,30,3.20
2010,03,07,07,31,3.20
2010,03,07,07,32,3.20
2010,03,07,07,33,3.20
2010,03,07,07,34,3.20
2010,03,07,07,35,3.20
2010,03,07,07,37,3.20
2010,03,07,07,38,3.20
2010,03,07,20,59,1.20
2010,03,07,21,00,1.20
2010,03,07,21,01,1.10
2010,03,07,21,02,1.10
2010,03,07,21,03,1.10
2010,03,07,21,04,1.10
2010,03,07,21,05,1.10
2010,03,07,21,06,1.10
2010,03,07,21,07,1.10
2010,03,07,21,08,1.10
2010,03,07,21,09,1.10
2010,03,07,21,10,1.10
2010,03,07,21,11,1.10
2010,03,07,21,12,1.10
2010,03,07,21,13,1.10
2010,03,07,21,14,1.10
2010,03,07,21,15,1.10
2010,03,07,21,31,1.00
2010,03,07,21,32,0.90
2010,03,07,21,33,0.90
2010,03,07,21,34,0.90
2010,03,07,21,35,0.90
2010,03,07,21,36,0.90
2010,03,07,21,37,0.90
2010,03,07,21,38,0.90
2010,03,07,21,39,0.80
2010,03,07,21,40,0.80
2010,03,07,21,41,0.80
2010,03,07,21,42,0.80
2010,03,07,21,43,0.80
2010,03,07,21,44,0.80
2010,03,07,21,45,0.80
2010,03,07,21,46,0.80
2010,03,07,21,47,0.80
2010,03,07,21,48,0.80
2010,03,07,21,49,0.80
2010,03,07,21,50,0.80
2010,03,07,21,51,0.80
2010,03,07,21,52,0.80
2010,03,07,21,53,0.70
2010,03,07,21,54,0.70
2010,03,07,21,55,0.70
2010,03,07,21,56,0.70
2010,03,07,21,57,0.70
2010,03,07,21,58,0.70
2010,03,07,21,59,0.70
2010,03,07,22,00,0.70
2010,03,07,22,01,0.70
2010,03,07,22,02,0.70
2010,03,07,22,03,0.70
2010,03,07,22,04,0.70
2010,03,07,22,05,0.70
2010,03,07,22,06,0.70
2010,03,07,22,07,0.70
2010,03,07,22,08,0.70
2010,03,07,22,09,0.70
2010,03,07,22,10,0.70
2010,03,07,22,11,0.70
2010,03,07,22,12,0.70
2010,03,07,22,13,0.70
2010,03,07,22,14,0.70
2010,03,07,22,15,0.70
2010,03,07,22,16,0.70
2010,03,07,22,17,0.70
2010,03,07,22,18,0.70
2010,03,07,22,19,0.70
2010,03,07,22,20,0.60
2010,03,07,22,21,0.60
2010,03,07,22,22,0.60
2010,03,07,22,23,0.60
2010,03,07,22,24,0.60
2010,03,07,22,25,0.60
2010,03,07,22,26,0.60
2010,03,07,22,27,0.50
2010,03,07,22,28,0.40
2010,03,07,22,29,0.40
2010,03,07,22,30,0.40
2010,03,07,22,31,0.40
2010,03,07,22,32,0.40
2010,03,07,22,33,0.40
2010,03,07,22,34,0.40
2010,03,07,22,35,0.30
2010,03,07,22,36,0.30
2010,03,07,22,37,0.30
2010,03,07,22,38,0.30
2010,03,07,22,39,0.30
2010,03,07,22,40,0.30
2010,03,07,22,41,0.30
2010,03,07,22,42,0.30
2010,03,07,22,43,0.30
2010,03,07,22,44,0.30
2010,03,07,22,45,0.30
2010,03,07,22,46,0.20
2010,03,07,22,47,0.30
2010,03,07,22,48,0.20
2010,03,07,22,49,0.20
2010,03,07,22,50,0.30
2010,03,07,22,51,0.30
2010,03,07,22,52,0.30
2010,03,07,22,53,0.30
2010,03,07,22,54,0.30
2010,03,07,22,55,0.30
2010,03,07,22,56,0.30
2010,03,07,22,57,0.30
2010,03,07,22,58,0.30
2010,03,07,22,59,0.30
2010,03,07,23,00,0.30
2010,03,07,23,01,0.30
2010,03,07,23,02,0.30
2010,03,07,23,03,0.30
2010,03,07,23,04,0.30
2010,03,07,23,05,0.30
2010,03,07,23,06,0.30
2010,03,07,23,07,0.30
2010,03,07,23,08,0.30
2010,03,07,23,09,0.30
2010,03,07,23,10,0.40
2010,03,07,23,11,0.40
2010,03,07,23,12,0.40
2010,03,07,23,13,0.40
2010,03,07,23,14,0.40
2010,03,07,23,15,0.40
2010,03,07,23,16,0.40
2010,03,07,23,17,0.40
2010,03,07,23,18,0.40
2010,03,07,23,19,0.40
2010,03,07,23,20,0.40
2010,03,07,23,21,0.40
2010,03,07,23,22,0.40
2010,03,07,23,23,0.40
2010,03,07,23,24,0.40
2010,03,07,23,25,0.40
2010,03,07,23,26,0.40
2010,03,07,23,27,0.40
2010,03,07,23,28,0.40
2010,03,07,23,29,0.40
2010,03,07,23,30,0.40
2010,03,07,23,31,0.40
2010,03,07,23,32,0.40
2010,03,07,23,33,0.40
2010,03,07,23,34,0.40
2010,03,07,23,35,0.50
2010,03,07,23,36,0.50
2010,03,07,23,37,0.50
2010,03,07,23,38,0.50
2010,03,07,23,39,0.50
2010,03,07,23,40,0.50
2010,03,07,23,41,0.50
2010,03,07,23,42,0.50
2010,03,07,23,43,0.50
2010,03,07,23,44,0.50
2010,03,07,23,45,0.50
2010,03,07,23,46,0.50
2010,03,07,23,47,0.50
2010,03,07,23,48,0.50
2010,03,07,23,49,0.50
2010,03,07,23,50,0.60
2010,03,07,23,51,0.60
2010,03,07,23,52,0.60
2010,03,07,23,53,0.60
2010,03,07,23,54,0.60
2010,03,07,23,55,0.60
2010,03,07,23,56,0.60
2010,03,07,23,57,0.60
2010,03,07,23,58,0.60
2010,03,07,23,59,0.60
